Home > Weather > Mandalay > Past weeks

Flag for Myanmar Weather for the Past 2 Weeks in Mandalay, Myanmar

Now
55 °F

Clear.


Feels Like: 55 °F
Forecast: 66 / 86 °F
Wind: No wind

Location: Chiang Mai Airport

Current Time: Feb 11, 2016 at 5:40:18 AM

Latest Report: Feb 11, 2016 at 5:00 AM


Visibility: 4 mi

Pressure: 29.98 "Hg

Humidity: 82%

Dew point: 50 °F

Location of MandalayLocation

Historic Weather in Mandalay — Graph

°F

Mandalay Temperature Yesterday

Maximum temperature yesterday: 86 °F (at 4:00 PM)
Minimum temperature yesterday: 54 °F (at 5:00 AM)
Average temperature yesterday: 70 °F

High & Low Weather Summary for the Past Weeks

 TemperatureHumidityPressure
High95 °F (Feb 1, 2:30 PM)94% (Jan 29, 3:00 AM)30.27 "Hg (Jan 29, 3:00 AM)
Low54 °F (Jan 27, 1:30 AM)15% (Feb 1, 2:30 PM)29.86 "Hg (Jan 30, 3:30 PM)
Average70 °F56%30.03 "Hg
* Reported Jan 27 1:30 AM — Feb 11 1:30 AM, Mandalay, Weather by CustomWeather, © 2016

Note: Actual official high and low records may vary slightly from our data, if they occured in-between our weather recording intervals... More about our weather records

Advertising

Mandalay Weather History for the Previous 24 Hours

 ConditionsComfort  
Time TempWeatherWind HumidityBarometerVisibility
1:30 AM
Thu, Feb 11
61 °FClear.No wind68%29.95 "Hg5 mi
12:30 AM61 °FClear.No wind63%29.98 "Hg5 mi
12:00 AM63 °FClear.No wind64%29.98 "Hg5 mi
11:30 PM
Wed, Feb 10
63 °FClear.No wind64%29.98 "Hg5 mi
11:00 PM64 °FClear.No wind56%29.98 "Hg5 mi
10:30 PM64 °FClear.No wind60%29.98 "Hg5 mi
10:00 PM66 °FClear.No wind49%29.98 "Hg5 mi
9:30 PM66 °FClear.No wind52%29.98 "Hg5 mi
9:00 PM66 °FClear.1 mph56%29.95 "Hg5 mi
8:30 PM68 °FClear.No wind49%29.95 "Hg5 mi
8:00 PM73 °FClear.No wind36%29.95 "Hg5 mi
7:30 PM73 °FClear.3 mph33%29.92 "Hg5 mi
7:00 PM75 °FClear.2 mph29%29.92 "Hg5 mi
6:30 PM77 °FClear.No wind32%29.92 "Hg5 mi
6:00 PM79 °FClear.No wind26%29.89 "Hg5 mi
5:30 PM82 °FClear.No wind20%29.89 "Hg5 mi
5:00 PM84 °FClear.No wind18%29.89 "Hg5 mi
4:30 PM84 °FClear.2 mph18%29.89 "Hg4 mi
4:00 PM86 °FClear.3 mph17%29.89 "Hg4 mi
3:30 PM84 °FClear.2 mph19%29.92 "Hg4 mi
3:00 PM84 °FClear.3 mph19%29.92 "Hg4 mi
2:30 PM84 °FClear.5 mph20%29.92 "Hg5 mi
2:00 PM82 °FClear.6 mph17%29.95 "Hg5 mi
1:30 PM82 °FClear.6 mph19%29.95 "Hg5 mi
1:00 PM81 °FClear.3 mph20%29.98 "Hg4 mi
12:30 PM79 °FClear.3 mph24%30.01 "Hg4 mi
12:00 PM77 °FClear.2 mph30%30.01 "Hg4 mi
11:30 AM75 °FClear.3 mph34%30.04 "Hg4 mi
11:00 AM72 °FClear.3 mph41%30.07 "Hg4 mi
10:30 AM70 °FHaze.2 mph40%30.07 "Hg3 mi
10:00 AM68 °FHaze.No wind43%30.09 "Hg3 mi
9:30 AM66 °FHaze.No wind52%30.09 "Hg3 mi
9:00 AM64 °FHaze.No wind60%30.09 "Hg3 mi
8:30 AM61 °FFog.No wind68%30.09 "Hg3 mi
8:00 AM59 °FFog.No wind68%30.07 "Hg3 mi
7:00 AM54 °FFog.No wind77%30.07 "Hg3 mi
6:30 AM54 °FFog.No wind77%30.04 "Hg3 mi
6:00 AM54 °FClear.No wind77%30.04 "Hg4 mi
5:30 AM54 °FClear.No wind82%30.04 "Hg4 mi
5:00 AM54 °FClear.No wind82%30.01 "Hg4 mi
Weather by CustomWeather, © 2016

See weather overviewHow to use our weather pages